User: anonymous   Login
Location: Unspecified
(0.0000°N, 0.0000°E)
Time: 18:57:57
(UTC+00:00)
Language:

UNAMSat - Orbit

View from above orbital plane
View from above orbital plane
View from above satellite
View from above satellite

Ground track
Ground track

The orbit data is extracted from the following two-line orbital elements,

1 24305U 96052B   21058.26270378  .00000040  00000-0  26300-4 0  9996
2 24305  82.9331  72.8927 0028825 240.6360 119.1916 13.73830852226911
Epoch (UTC): 27 February 2021 06:18:17
Eccentricity: 0.0028825
inclination: 82.9331°
perigee height: 964 km
apogee height: 1007 km
right ascension of ascending node: 72.8927°
argument of perigee: 240.6360°
revolutions per day: 13.73830852
mean anomaly at epoch: 119.1916°
orbit number at epoch: 22691

The dashed part of the orbit path shows where the satellite is in the earth's shadow,  

DLR